Appleton, WI

4:45 AM CDT on May 25, 2018 (GMT -0500)
Outagamie County Regional

Weather History for KATW - July, 2013

Change the Weather History Date:

Wednesday, July 3, 2013

  Actual Average Record
Temperature  
Mean Temperature 64 °F -  
Max Temperature 69 °F 79 °F 95 °F (1949)
Min Temperature 59 °F 60 °F 47 °F (1968)
Degree Days  
Heating Degree Days 1    
Growing Degree Days 14 (Base 50)    
Moisture  
Dew Point 53 °F    
Average Humidity 69    
Maximum Humidity 94    
Minimum Humidity 48    
Precipitation  
Precipitation 0.00 in - - ()
Sea Level Pressure  
Sea Level Pressure 30.08 in    
Wind  
Wind Speed 3 mph (ENE)    
Max Wind Speed 9 mph    
Max Gust Speed -    
Visibility 9 miles    
Events Rain    
Averages and records for this station are not official NWS values.
T = Trace of Precipitation, MM = Missing Value Source: NWS Daily Summary

Daily Weather History Graph

Daily Weather History Graph

Search for Another Location

Airport or City:

Astronomy

Jul. 03, 2013 Rise Set
Actual Time 5:15 AM CDT 8:41 PM CDT
Civil Twilight 4:39 AM CDT 9:17 PM CDT
Nautical Twilight 3:51 AM CDT 10:04 PM CDT
Astronomical Twilight 2:51 AM CDT 11:04 PM CDT
Moon 1:58 AM CDT (7/3) 4:47 PM CDT (7/3)
Length of Visible Light 16h 38m
Length of Day
15h 25m
Waning Crescent, 18% of the Moon is Illuminated
Jul 3
Waning Crescent
Jul 8
New
Jul 15
First Quarter
Jul 22
Full
Jul 29
Last Quarter

Hourly Weather History & Observations

Time (CDT) Temp. Dew Point Humidity Pressure Visibility Wind Dir Wind Speed Gust Speed Precip Events Conditions
12:15 AM 60.8 °F 41.0 °F 48% 30.11 in 10.0 mi Calm Calm - N/A   Overcast
12:35 AM 62.6 °F 42.8 °F 48% 30.11 in 10.0 mi Calm Calm - N/A   Overcast
1:15 AM 62.6 °F 42.8 °F 48% 30.11 in 10.0 mi ENE 3.5 mph - N/A   Overcast
1:35 AM 62.6 °F 44.6 °F 52% 30.11 in 10.0 mi Calm Calm - N/A   Overcast
1:55 AM 62.6 °F 46.4 °F 55% 30.10 in 10.0 mi ENE 3.5 mph - N/A   Overcast
2:15 AM 62.6 °F 46.4 °F 55% 30.09 in 10.0 mi ENE 3.5 mph - N/A   Overcast
2:35 AM 62.6 °F 46.4 °F 55% 30.09 in 10.0 mi East 3.5 mph - N/A   Overcast
2:55 AM 62.6 °F 46.4 °F 55% 30.09 in 10.0 mi Calm Calm - N/A   Overcast
3:15 AM 62.6 °F 48.2 °F 59% 30.09 in 10.0 mi ENE 3.5 mph - N/A   Overcast
3:35 AM 60.8 °F 46.4 °F 59% 30.09 in 10.0 mi NNE 4.6 mph - N/A   Overcast
3:55 AM 60.8 °F 48.2 °F 63% 30.09 in 10.0 mi Calm Calm - N/A   Overcast
4:15 AM 60.8 °F 48.2 °F 63% 30.09 in 10.0 mi East 3.5 mph - N/A   Overcast
4:35 AM 60.8 °F 50.0 °F 68% 30.09 in 10.0 mi North 3.5 mph - N/A   Overcast
4:55 AM 60.8 °F 50.0 °F 68% 30.09 in 10.0 mi NNE 4.6 mph - N/A   Overcast
5:15 AM 59.0 °F 50.0 °F 72% 30.09 in 10.0 mi North 4.6 mph - N/A   Overcast
5:45 AM 60.8 °F 51.8 °F 72% 30.10 in 10.0 mi NNE 4.6 mph - N/A   Overcast
6:45 AM 62.6 °F 51.8 °F 68% 30.10 in 10.0 mi Variable 4.6 mph - N/A   Overcast
7:45 AM 60.8 °F 53.6 °F 77% 30.11 in 10.0 mi Calm Calm - N/A   Overcast
8:45 AM 62.6 °F 53.6 °F 72% 30.13 in 7.0 mi North 6.9 mph - N/A Rain Light Rain
9:45 AM 62.6 °F 53.6 °F 72% 30.12 in 10.0 mi North 4.6 mph - N/A   Overcast
10:45 AM 64.4 °F 55.4 °F 73% 30.12 in 10.0 mi Variable 4.6 mph - N/A   Overcast
12:45 PM 68.0 °F 53.6 °F 60% 30.10 in 10.0 mi ENE 5.8 mph - N/A   Overcast
1:45 PM 68.0 °F 51.8 °F 56% 30.09 in 10.0 mi NE 9.2 mph - N/A   Overcast
2:45 PM 69.8 °F 53.6 °F 56% 30.08 in 10.0 mi ENE 6.9 mph - N/A   Overcast
3:45 PM 69.8 °F 55.4 °F 60% 30.07 in 10.0 mi ESE 5.8 mph - N/A   Overcast
4:45 PM 68.0 °F 57.2 °F 68% 30.06 in 10.0 mi SE 5.8 mph - N/A   Overcast
5:45 PM 66.2 °F 62.6 °F 88% 30.05 in 7.0 mi SE 6.9 mph - N/A   Overcast
6:45 PM 66.2 °F 60.8 °F 83% 30.04 in 7.0 mi ESE 3.5 mph - N/A   Mostly Cloudy
7:45 PM 66.2 °F 60.8 °F 83% 30.04 in 7.0 mi Variable 3.5 mph - N/A   Mostly Cloudy
8:45 PM 66.2 °F 60.8 °F 83% 30.04 in 7.0 mi Calm Calm - N/A   Mostly Cloudy
9:45 PM 66.2 °F 60.8 °F 83% 30.05 in 7.0 mi Calm Calm - N/A   Overcast
10:45 PM 66.2 °F 60.8 °F 83% 30.05 in 7.0 mi Calm Calm - N/A   Overcast
10:55 PM 64.4 °F 60.8 °F 88% 30.05 in 7.0 mi Calm Calm - N/A   Overcast
11:15 PM 64.4 °F 60.8 °F 88% 30.05 in 7.0 mi SE 4.6 mph - N/A   Overcast
11:35 PM 64.4 °F 62.6 °F 94% 30.05 in 7.0 mi SSE 5.8 mph - N/A   Overcast
11:55 PM 64.4 °F 62.6 °F 94% 30.05 in 7.0 mi South 6.9 mph - N/A   Overcast